Location: Thunder Bay
(48.4000°N, 89.2330°W)
Time: 17:14:53
(UTC-04:00)

ISS - Visible Passes

Search period start: 23 June 2021 00:00
Search period end: 03 July 2021 00:00
Orbit: 417 x 422 km, 51.6° (Epoch: 23 June)

Date Brightness Start Highest point End Pass type
(mag) Time Alt. Az. Time Alt. Az. Time Alt. Az.
28 Jun -1.9 05:13:24 10° SSW 05:16:04 22° SE 05:18:44 10° E visible
29 Jun -1.5 04:26:56 10° S 04:28:46 15° SE 04:30:44 10° E visible
30 Jun -3.2 05:14:25 10° SW 05:17:41 48° SSE 05:20:58 10° ENE visible
01 Jul -2.7 04:28:20 18° SSW 04:30:18 32° SE 04:33:22 10° E visible
02 Jul -2.2 03:42:29 21° SSE 03:42:57 22° SE 03:45:39 10° E visible
02 Jul -3.7 05:16:05 10° WSW 05:19:29 85° NNW 05:22:51 10° ENE visible
